Вернуться в каталог

STARLINK-37485

АктивенСвязьVLEO
NORAD 69376·PAYLOAD·🇺🇸 United States

Запущен Jun 4, 2026 с Cape Canaveral Space Force Station

Loading…

Ближайшие Пролёты (ближайшие 24 часа)

TLE

СвежийSource: CelesTrak SupGP

Эпоха: Sep 14, 2026, 15:14 UTC

1 69376C 26123Z   26257.63520833  .00064703  00000+0  19121-2 0  2579
2 69376  53.1577 169.1586 0001227  91.0741 107.7511 15.34351425    17

Отслеживайте STARLINK-37485 в реальном времени с AllMySat

Download on the App Store